Location: Chakepay
(13.3931°S, 72.1925°W)
Time: 07:29:34
(UTC+00:00)

Cosmos 2123 Rocket - Pass Details

Date: 15 November 2019
Orbit: 961 x 992 km, 82.9° (Epoch: 06 December)

Event Time Altitude Azimuth Distance (km) Brightness Sun altitude
Rises 09:41:36 0° 346° (NNW) 3,646 6.7 -7.6°
Reaches altitude 10° 09:44:09 10° 342° (NNW) 2,708 6.0 -7.1°
Maximum altitude 09:50:11 54° 265° (W) 1,174 4.2 -5.7°
Drops below altitude 10° 09:56:20 10° 189° (S) 2,751 6.5 -4.3°
Sets 09:58:56 0° 184° (S) 3,708 7.3 -3.7°
